Savannah, GA

12:45 AM EST on February 22, 2018 (GMT -0500)
Savannah International

Weather History for KSAV - September, 2013

Change the Weather History Date:

Sunday, September 1, 2013

  Actual Average Record
Temperature  
Mean Temperature 83 °F 80 °F  
Max Temperature 92 °F 89 °F 97 °F (1957)
Min Temperature 74 °F 71 °F 60 °F (1999)
Degree Days  
Heating Degree Days 0 0  
Month to date heating degree days 0 0  
Since 1 July heating degree days 0 0  
Cooling Degree Days 18 15  
Month to date cooling degree days 18 15  
Year to date cooling degree days 1867 1922  
Growing Degree Days 32 (Base 50)    
Moisture  
Dew Point 73 °F    
Average Humidity 73    
Maximum Humidity 94    
Minimum Humidity 52    
Precipitation  
Precipitation 0.00 in 0.18 in 2.14 in (1889)
Month to date precipitation 0.00 0.18  
Year to date precipitation 47.17 34.55  
Sea Level Pressure  
Sea Level Pressure 29.93 in    
Wind  
Wind Speed 7 mph (SSW)    
Max Wind Speed 15 mph    
Max Gust Speed 17 mph    
Visibility 9 miles    
Events      
T = Trace of Precipitation, MM = Missing Value Source: NWS Daily Summary

Daily Weather History Graph

Daily Weather History Graph

Search for Another Location

Airport or City:

Trip Planner

Search our weather history database for the weather conditions in past years. The results will help you decide how hot, cold, wet, or windy it might be!

Date:

Astronomy

Sep. 01, 2013 Rise Set
Actual Time 7:00 AM EDT 7:48 PM EDT
Civil Twilight 6:35 AM EDT 8:13 PM EDT
Nautical Twilight 6:05 AM EDT 8:42 PM EDT
Astronomical Twilight 5:35 AM EDT 9:13 PM EDT
Moon 3:29 AM EDT (9/1) 5:18 PM EDT (9/1)
Length of Visible Light 13h 38m
Length of Day
12h 48m
Waning Crescent, 14% of the Moon is Illuminated
Sep 1
Waning Crescent
Sep 5
New
Sep 12
First Quarter
Sep 19
Full
Sep 26
Last Quarter

Hourly Weather History & Observations

Time (EDT) Temp. Heat Index Dew Point Humidity Pressure Visibility Wind Dir Wind Speed Gust Speed Precip Events Conditions
12:53 AM 78.1 °F - 75.0 °F 90% 29.94 in 6.0 mi South 4.6 mph - N/A   Clear
1:53 AM 77.0 °F - 75.0 °F 94% 29.93 in 6.0 mi South 4.6 mph - N/A   Clear
2:53 AM 77.0 °F - 73.9 °F 90% 29.92 in 6.0 mi Calm Calm - N/A   Clear
3:53 AM 75.9 °F - 73.0 °F 91% 29.92 in 6.0 mi West 4.6 mph - N/A   Clear
4:53 AM 75.0 °F - 72.0 °F 90% 29.92 in 8.0 mi SSW 4.6 mph - N/A   Clear
5:53 AM 73.9 °F - 71.1 °F 91% 29.93 in 9.0 mi South 5.8 mph - N/A   Clear
6:53 AM 73.9 °F - 70.0 °F 87% 29.94 in 9.0 mi SW 3.5 mph - N/A   Scattered Clouds
7:53 AM 73.9 °F - 70.0 °F 87% 29.94 in 9.0 mi WSW 3.5 mph - N/A   Scattered Clouds
8:53 AM 78.1 °F - 73.0 °F 84% 29.96 in 9.0 mi WSW 6.9 mph - N/A   Scattered Clouds
9:53 AM 82.0 °F 87.4 °F 73.0 °F 74% 29.97 in 10.0 mi WSW 6.9 mph - N/A   Scattered Clouds
10:53 AM 84.9 °F 91.4 °F 73.0 °F 67% 29.97 in 10.0 mi WSW 6.9 mph - N/A   Scattered Clouds
11:53 AM 88.0 °F 96.5 °F 73.9 °F 63% 29.96 in 10.0 mi SSW 9.2 mph - N/A   Scattered Clouds
12:53 PM 87.1 °F 93.6 °F 72.0 °F 61% 29.95 in 10.0 mi WSW 6.9 mph - N/A   Scattered Clouds
1:53 PM 89.1 °F 96.0 °F 72.0 °F 57% 29.94 in 10.0 mi WSW 6.9 mph - N/A   Scattered Clouds
2:53 PM 90.0 °F 97.9 °F 73.0 °F 57% 29.91 in 10.0 mi SSW 8.1 mph - N/A   Scattered Clouds
3:53 PM 90.0 °F 96.4 °F 71.1 °F 54% 29.89 in 10.0 mi SW 9.2 mph - N/A   Scattered Clouds
4:53 PM 91.9 °F 99.5 °F 72.0 °F 52% 29.88 in 10.0 mi SW 9.2 mph - N/A   Scattered Clouds
5:53 PM 89.1 °F 95.0 °F 71.1 °F 55% 29.86 in 10.0 mi SW 8.1 mph - N/A   Scattered Clouds
6:53 PM 87.1 °F 96.3 °F 75.0 °F 67% 29.87 in 10.0 mi South 10.4 mph - N/A   Scattered Clouds
7:53 PM 84.0 °F 91.9 °F 75.0 °F 74% 29.89 in 9.0 mi South 11.5 mph - N/A   Scattered Clouds
8:53 PM 82.0 °F 88.6 °F 75.0 °F 79% 29.91 in 9.0 mi South 11.5 mph - N/A   Scattered Clouds
9:53 PM 82.0 °F 88.6 °F 75.0 °F 79% 29.93 in 10.0 mi South 10.4 mph - N/A   Scattered Clouds
10:53 PM 81.0 °F 86.7 °F 75.0 °F 82% 29.94 in 10.0 mi South 5.8 mph - N/A   Scattered Clouds
11:53 PM 80.1 °F 85.1 °F 75.0 °F 85% 29.94 in 10.0 mi SSW 5.8 mph - N/A   Partly Cloudy